THORAD AGENA D DEB

Satellite information

Favourite Embed

Satellite Type and Status

DEBRISIN ORBIT

Key statistics

Satellite THORAD AGENA D DEB at a glance.

Uptime

20338

Days in orbit

Revolutions

≈ 14.4

Per day

Orbit

SSO

Sun Synchronous Orbit

Inclination

99.1

Latest

Satellite identification and parameters

Extended collection of information and parameters for THORAD AGENA D DEB.

Object identification

Identified? True

Debris? True

Object name: THORAD AGENA D DEB

International designator: 1970-025SH

Object number (NORAD): 42527

Object ID (CCSDS): 42527

Country: UNITED STATES OF AMERICA (US)

Current information (Y/N): Y

RCS size: SMALL

Orbital parameters

Period: 100.003 minutes

Inclination: 99.1253 deg

SMA: 7136.794 km

Apoapsis: 774.813 km

Periapsis: 742.505 km

RAAN: 276.3125 deg

Eccentricy: 0.00226345

Argument of periapsis: 174.2948 deg

Mean anomaly: 185.85 deg

Mean motion: 14.39951959 rev/day

Mean motion (dot): 0.00010431 rev/day2

B* drag term: 0.0033159559 1/REarth

Two-line elements (TLE)

Creation date: Dec. 3, 2025, 2:22 a.m.

Reference frame: TEME

Reference center: EARTH

Epoch: Dec. 2, 2025, 1:21 p.m. UTC

TLE line 0: 0 THORAD AGENA D DEB

TLE line 1: 1 42527U 70025SH 25336.55635159 .00010431 00000-0 33160-2 0 9996

TLE line 2: 2 42527 99.1253 276.3125 0022634 174.2948 185.8500 14.39951959623079

Live tracking on map

Real-time ground track for satellite THORAD AGENA D DEB.

In-orbit conjunctions

A list of the most updated potential collisions computed for object THORAD AGENA D DEB.

Target Orbit TCA Probability of collision Miss distance Type
ITAMSAT SSO 2025-04-18 06:42:06 0.0003639918 428.0 (m) PAYLOAD
IRIDIUM 36 LEO 2025-04-13 23:49:34 0.001193203 184.0 (m) PAYLOAD

Associated space launch

Meteorological research and development satellite

THORAD AGENA D DEB was lifted into orbit during the mission ‘Thorad SLV-2G Agena D | Nimbus 4’, on board a Thorad SLV-2G Agena D space rocket.

The launch took place on April 8, 1970, 8:17 a.m. from Space Launch Complex 2E.

For more information about the launch, click the button.

Launch to space Thorad SLV-2G Agena D | Nimbus 4
Thorad SLV-2G Agena D | Nimbus 4

Agency: N/A

Status: Launch Successful

Launch date: April 8, 1970, 8:17 a.m. UTC

Rocket: Thorad SLV-2G Agena D

Launch pad: Space Launch Complex 2E

Location: Vandenberg SFB, CA, USA

...

Latest news about this satellite

There are no fresh news available about this satellite. Check back as we update our databases every day.


Newsletter sign-up

Weekly statistics, charts and insights to help you stay on top of the space industry.